Location: Newark
(7.0858°N, 171.3717°E)
Time: 09:47:27
(UTC+00:00)

S-56A Canister/Altair - Pass Details

Date: 05 December 2020
Orbit: 633 x 2499 km, 38.9° (Epoch: 27 January)

Event Time Altitude Azimuth Distance (km) Brightness Sun altitude
Rises 06:06:18 0° 271° (W) 6,174 13.6 1.6°
Reaches altitude 10° 06:12:00 10° 285° (WNW) 5,100 12.7 0.3°
Maximum altitude 06:21:58 21° 329° (NNW) 3,889 11.2 -1.9°
Drops below altitude 10° 06:30:30 10° 14° (NNE) 4,261 11.0 -3.9°
Sets 06:34:44 0° 30° (NNE) 4,937 11.2 -4.9°
